When you browse on this site, cookies collect data to enhance your experience and personalize the content and advertising you see.
Visit our Privacy Policy to learn more. By continuing to use the site, you agree to this use of cookies and data.
  • în România
  • Lista ţărilor
  • Pe 7 zile
  • Temperatura apei
  • Hartă satelitară
  • Meteo pe hartă
  • Widget-uri
  • user-avatar
    Intrare

    Meteo pe oră la Krasnoe Pole

    Astăzi, 20 Noiembrie, Marţi

    Timp Temperatura Precipitaţii Vânt Presiune Umiditate
    00:00 +2°C° 0 mm 3 m/s 731 mmHg 75%
    01:00 +2°C° 0 mm 3 m/s 730 mmHg 74%
    02:00 +2°C° 0 mm 3 m/s 730 mmHg 74%
    03:00 +2°C° 0 mm 3 m/s 730 mmHg 74%
    04:00 +2°C° 0 mm 3 m/s 730 mmHg 74%
    05:00 +4°C° 0 mm 2 m/s 730 mmHg 75%
    06:00 +4°C° 0 mm 2 m/s 730 mmHg 76%
    07:00 +4°C° 0.1 mm 2 m/s 729 mmHg 76%
    08:00 +5°C° 0.1 mm 1 m/s 729 mmHg 77%
    09:00 +5°C° 0.1 mm 1 m/s 729 mmHg 77%
    10:00 +6°C° 0.4 mm 1 m/s 729 mmHg 77%
    11:00 +6°C° 0.4 mm 1 m/s 729 mmHg 77%
    12:00 +6°C° 0.4 mm 1 m/s 729 mmHg 77%
    13:00 +6°C° 0.3 mm 2 m/s 729 mmHg 76%
    14:00 +6°C° 0.3 mm 2 m/s 728 mmHg 76%
    15:00 +7°C° 0.3 mm 2 m/s 728 mmHg 75%
    16:00 +8°C° 0.2 mm 1 m/s 728 mmHg 76%
    17:00 +7°C° 0.2 mm 1 m/s 728 mmHg 77%
    18:00 +7°C° 0.2 mm 1 m/s 728 mmHg 79%
    19:00 +7°C° 0.2 mm 1 m/s 728 mmHg 80%
    20:00 +8°C° 0.2 mm 1 m/s 728 mmHg 81%
    21:00 +8°C° 0.2 mm 1 m/s 728 mmHg 82%
    22:00 +7°C° 0.1 mm 2 m/s 728 mmHg 85%
    23:00 +7°C° 0.1 mm 2 m/s 729 mmHg 89%

    Mâine, 21 Noiembrie, Miercuri

    Timp Temperatura Precipitaţii Vânt Presiune Umiditate
    00:00 +7°C° 0.1 mm 2 m/s 729 mmHg 92%
    01:00 +6°C° 0 mm 2 m/s 729 mmHg 92%
    02:00 +6°C° 0 mm 2 m/s 729 mmHg 93%
    03:00 +6°C° 0 mm 2 m/s 729 mmHg 93%
    04:00 +6°C° 0 mm 2 m/s 729 mmHg 93%
    05:00 +6°C° 0 mm 2 m/s 729 mmHg 92%
    06:00 +6°C° 0 mm 2 m/s 729 mmHg 92%
    07:00 +6°C° 0 mm 2 m/s 729 mmHg 91%
    08:00 +6°C° 0 mm 2 m/s 729 mmHg 89%
    09:00 +6°C° 0 mm 2 m/s 729 mmHg 88%
    10:00 +7°C° 0 mm 2 m/s 729 mmHg 84%
    11:00 +7°C° 0 mm 2 m/s 729 mmHg 79%
    12:00 +8°C° 0 mm 2 m/s 729 mmHg 75%
    13:00 +8°C° 0 mm 2 m/s 728 mmHg 77%
    14:00 +7°C° 0 mm 2 m/s 728 mmHg 78%
    15:00 +7°C° 0 mm 2 m/s 728 mmHg 80%
    16:00 +6°C° 0 mm 2 m/s 728 mmHg 83%
    17:00 +6°C° 0 mm 2 m/s 728 mmHg 87%
    18:00 +5°C° 0 mm 2 m/s 728 mmHg 90%
    19:00 +5°C° 0.1 mm 2 m/s 728 mmHg 90%
    20:00 +5°C° 0.1 mm 2 m/s 728 mmHg 91%
    21:00 +5°C° 0.1 mm 2 m/s 728 mmHg 92%
    22:00 +4°C° 0 mm 2 m/s 728 mmHg 92%
    23:00 +5°C° 0 mm 1 m/s 728 mmHg 92%

    Poimâine, 22 Noiembrie, Joi

    Timp Temperatura Precipitaţii Vânt Presiune Umiditate
    00:00 +5°C° 0 mm 1 m/s 727 mmHg 93%
    01:00 +5°C° 0 mm 1 m/s 727 mmHg 93%
    02:00 +5°C° 0 mm 1 m/s 727 mmHg 93%
    03:00 +5°C° 0 mm 1 m/s 727 mmHg 93%
    04:00 +5°C° 0 mm 1 m/s 727 mmHg 93%
    05:00 +4°C° 0 mm 1 m/s 727 mmHg 93%
    06:00 +4°C° 0 mm 1 m/s 727 mmHg 93%
    07:00 +5°C° 0 mm 1 m/s 727 mmHg 91%
    08:00 +5°C° 0 mm 1 m/s 728 mmHg 90%
    09:00 +4°C° 0 mm 2 m/s 728 mmHg 88%
    10:00 +4°C° 0 mm 2 m/s 728 mmHg 86%
    11:00 +5°C° 0 mm 2 m/s 727 mmHg 84%
    12:00 +5°C° 0 mm 2 m/s 727 mmHg 82%
    13:00 +5°C° 0.1 mm 2 m/s 727 mmHg 82%
    14:00 +5°C° 0.1 mm 2 m/s 727 mmHg 82%
    15:00 +6°C° 0.1 mm 1 m/s 727 mmHg 82%
    16:00 +6°C° 0 mm 1 m/s 727 mmHg 84%
    17:00 +5°C° 0 mm 1 m/s 728 mmHg 85%
    18:00 +5°C° 0 mm 1 m/s 728 mmHg 86%
    19:00 +5°C° 0 mm 1 m/s 728 mmHg 87%
    20:00 +4°C° 0 mm 1 m/s 728 mmHg 88%
    21:00 +4°C° 0 mm 1 m/s 728 mmHg 88%
    22:00 +4°C° 0 mm 1 m/s 728 mmHg 89%
    23:00 +3°C° 0 mm 1 m/s 728 mmHg 90%

    23 Noiembrie, Vineri

    Timp Temperatura Precipitaţii Vânt Presiune Umiditate
    00:00 +3°C° 0 mm 1 m/s 728 mmHg 90%
    01:00 +3°C° 0 mm 1 m/s 728 mmHg 90%
    02:00 +2°C° 0 mm 1 m/s 729 mmHg 90%
    03:00 +2°C° 0 mm 1 m/s 729 mmHg 90%
    04:00 +2°C° 0 mm 1 m/s 729 mmHg 90%
    05:00 +1°C° 0 mm 2 m/s 729 mmHg 90%
    06:00 +1°C° 0 mm 2 m/s 729 mmHg 90%
    07:00 +2°C° 0 mm 2 m/s 730 mmHg 87%
    08:00 +2°C° 0 mm 3 m/s 730 mmHg 83%
    09:00 +2°C° 0 mm 3 m/s 730 mmHg 80%
    10:00 +3°C° 0 mm 4 m/s 731 mmHg 72%
    11:00 +4°C° 0 mm 4 m/s 731 mmHg 65%
    12:00 +5°C° 0 mm 4 m/s 731 mmHg 57%
    13:00 +5°C° 0 mm 4 m/s 731 mmHg 55%
    14:00 +5°C° 0 mm 4 m/s 731 mmHg 53%
    15:00 +5°C° 0 mm 4 m/s 732 mmHg 51%
    16:00 +3°C° 0 mm 3 m/s 733 mmHg 57%
    17:00 +3°C° 0 mm 2 m/s 733 mmHg 62%
    18:00 +1°C° 0 mm 2 m/s 734 mmHg 67%
    19:00 +2°C° 0 mm 1 m/s 735 mmHg 69%
    20:00 +1°C° 0 mm 1 m/s 735 mmHg 72%
    21:00 +1°C° 0 mm 1 m/s 736 mmHg 74%
    22:00 +1°C° 0 mm 1 m/s 736 mmHg 76%
    23:00 0°C° 0 mm 1 m/s 736 mmHg 78%

    24 Noiembrie, Sâmbătă

    Timp Temperatura Precipitaţii Vânt Presiune Umiditate
    00:00 -2°C° 0 mm 2 m/s 736 mmHg 79%
    01:00 -2°C° 0 mm 2 m/s 736 mmHg 80%
    02:00 -2°C° 0 mm 2 m/s 736 mmHg 80%
    03:00 -2°C° 0 mm 2 m/s 736 mmHg 81%
    04:00 -2°C° 0 mm 2 m/s 736 mmHg 81%
    05:00 -2°C° 0 mm 2 m/s 737 mmHg 81%
    06:00 -3°C° 0 mm 2 m/s 737 mmHg 81%
    07:00 -2°C° 0 mm 2 m/s 737 mmHg 77%
    08:00 -1°C° 0 mm 3 m/s 737 mmHg 74%
    09:00 -1°C° 0 mm 3 m/s 737 mmHg 71%
    10:00 +1°C° 0 mm 3 m/s 736 mmHg 66%
    11:00 +2°C° 0 mm 3 m/s 736 mmHg 61%
    12:00 +3°C° 0 mm 3 m/s 736 mmHg 57%
    13:00 +3°C° 0 mm 3 m/s 735 mmHg 58%
    14:00 +3°C° 0 mm 3 m/s 735 mmHg 60%
    15:00 +3°C° 0 mm 3 m/s 735 mmHg 61%
    16:00 +2°C° 0 mm 3 m/s 735 mmHg 66%
    17:00 +1°C° 0 mm 3 m/s 735 mmHg 72%
    18:00 +1°C° 0 mm 2 m/s 735 mmHg 77%
    19:00 -1°C° 0 mm 2 m/s 735 mmHg 76%
    20:00 -1°C° 0 mm 2 m/s 735 mmHg 75%
    21:00 -1°C° 0 mm 2 m/s 735 mmHg 74%
    22:00 -1°C° 0 mm 2 m/s 734 mmHg 72%
    23:00 +1°C° 0 mm 1 m/s 734 mmHg 71%

    25 Noiembrie, Duminică

    Timp Temperatura Precipitaţii Vânt Presiune Umiditate
    00:00 +1°C° 0 mm 1 m/s 734 mmHg 69%
    01:00 +2°C° 0 mm 1 m/s 734 mmHg 68%
    02:00 +2°C° 0 mm 1 m/s 733 mmHg 67%
    03:00 +2°C° 0 mm 1 m/s 733 mmHg 66%
    04:00 +2°C° 0 mm 1 m/s 733 mmHg 64%
    05:00 +2°C° 0 mm 1 m/s 732 mmHg 63%
    06:00 +2°C° 0 mm 1 m/s 732 mmHg 62%
    07:00 +3°C° 0 mm 1 m/s 732 mmHg 58%
    08:00 +3°C° 0 mm 0 m/s 732 mmHg 55%
    09:00 +4°C° 0 mm 0 m/s 732 mmHg 51%
    10:00 +7°C° 0 mm 1 m/s 731 mmHg 47%
    11:00 +8°C° 0 mm 1 m/s 731 mmHg 42%
    12:00 +9°C° 0 mm 1 m/s 731 mmHg 37%
    13:00 +9°C° 0 mm 1 m/s 730 mmHg 39%
    14:00 +9°C° 0 mm 1 m/s 730 mmHg 41%
    15:00 +8°C° 0 mm 0 m/s 730 mmHg 43%
    16:00 +8°C° 0 mm 1 m/s 730 mmHg 46%
    17:00 +7°C° 0 mm 1 m/s 730 mmHg 49%
    18:00 +5°C° 0 mm 1 m/s 730 mmHg 52%
    19:00 +5°C° 0 mm 1 m/s 730 mmHg 52%
    20:00 +5°C° 0 mm 1 m/s 730 mmHg 53%
    21:00 +5°C° 0 mm 1 m/s 730 mmHg 53%
    22:00 +5°C° 0 mm 1 m/s 730 mmHg 53%
    23:00 +4°C° 0 mm 1 m/s 730 mmHg 54%
    Arată mai mult